1521576000.07,5511,11.0,72148.5,-14.73,-15.81,-15.81,0,*51
1521576001.35,5512,11.0,72144.3,-14.75,-15.81,-15.89,0,*5C
1521576002.61,5513,11.0,72146.0,-14.73,-15.89,-15.89,0,*53
1521576003.88,5514,11.0,72144.3,-14.75,-15.81,-15.89,0,*5A
1521576005.17,5515,11.0,72146.0,-14.75,-15.89,-15.81,0,*5B
1521576006.45,5516,11.0,72148.5,-14.75,-15.89,-15.89,0,*50
1521576007.73,5517,11.0,72156.8,-14.75,-15.89,-15.89,0,*51
1521576008.98,5518,11.0,72162.8,-14.75,-15.89,-15.75,0,*5D
1521576010.24,5519,11.0,72166.0,-14.73,-15.89,-15.89,0,*59
1521576011.53,5520,11.0,72160.3,-14.75,-15.89,-15.81,0,*5D
1521576012.79,5521,11.0,72154.3,-14.73,-15.89,-15.81,0,*5A
1521576014.08,5522,11.0,72150.8,-14.75,-15.89,-15.81,0,*5F
1521576015.34,5523,11.0,72148.3,-14.73,-15.89,-15.81,0,*58
1521576016.59,5524,11.0,72152.5,-14.75,-15.95,-15.89,0,*5C
1521576017.87,5525,11.06,72156.5,-14.75,-15.81,-15.81,0,*50
1521576019.16,5526,11.0,72154.5,-14.75,-15.89,-15.81,0,*5B
1521576020.42,5527,11.0,72160.0,-14.73,-15.89,-15.81,0,*5C
1521576021.7,5528,11.0,72160.3,-14.75,-15.89,-15.89,0,*5D
1521576022.99,5529,11.0,72156.5,-14.75,-15.89,-15.81,0,*54
1521576024.24,5530,11.0,72156.8,-14.73,-15.81,-15.89,0,*5A
1521576025.52,5531,11.0,72160.0,-14.75,-15.89,-15.89,0,*55
1521576026.78,5532,11.0,72162.8,-14.75,-15.95,-15.89,0,*5B
1521576028.03,5533,11.0,72164.5,-14.73,-15.81,-15.89,0,*59
1521576029.3,5534,11.0,72164.8,-14.73,-15.89,-15.81,0,*5E
1521576030.56,5535,11.0,72164.5,-14.73,-15.89,-15.89,0,*57
1521576031.83,5536,11.0,72166.8,-14.75,-15.81,-15.89,0,*5A
1521576033.11,5537,11.0,72164.3,-14.75,-15.81,-15.81,0,*53
1521576034.37,5538,11.0,72160.8,-14.75,-15.95,-15.81,0,*59
1521576035.65,5539,11.0,72160.3,-14.75,-15.89,-15.81,0,*55
1521576036.94,5540,11.0,72162.3,-14.75,-15.89,-15.81,0,*5B
1521576038.22,5541,11.0,72162.5,-14.75,-15.89,-15.81,0,*5A
1521576039.49,5542,11.0,72164.8,-14.73,-15.89,-15.81,0,*5F
1521576040.77,5543,11.0,72166.3,-14.75,-15.89,-15.81,0,*58
1521576042.04,5544,11.0,72162.8,-14.73,-15.89,-15.81,0,*59
1521576043.32,5545,11.0,72160.0,-14.75,-15.81,-15.81,0,*56
1521576044.57,5546,11.0,72162.5,-14.75,-15.89,-15.75,0,*56
1521576045.85,5547,11.0,72166.0,-14.75,-15.81,-15.81,0,*54
1521576047.11,5548,11.0,72160.8,-14.73,-15.89,-15.89,0,*5D
1521576048.39,5549,11.0,72160.5,-14.75,-15.89,-15.89,0,*5A
1521576049.67,5550,11.0,72160.3,-14.75,-15.81,-15.89,0,*5A
1521576050.95,5551,11.0,72160.0,-14.75,-15.89,-15.89,0,*53
1521576052.23,5552,11.0,72160.0,-14.75,-15.89,-15.89,0,*50
1521576053.47,5553,11.0,72154.8,-14.73,-15.95,-15.81,0,*52
1521576054.75,5554,11.0,72154.0,-14.75,-15.89,-15.81,0,*5E
1521576056.03,5555,11.0,72164.0,-14.75,-15.89,-15.89,0,*57
1521576057.31,5556,11.0,72160.8,-14.75,-15.89,-15.89,0,*54
1521576058.6,5557,11.0,72162.8,-14.75,-15.89,-15.81,0,*5D
1521576059.85,5558,11.0,72156.5,-14.75,-15.89,-15.75,0,*59
1521576061.14,5559,11.0,72160.3,-14.75,-15.89,-15.81,0,*53
1521576062.42,5560,11.0,72158.5,-14.75,-15.89,-15.81,0,*59
1521576063.69,5561,11.0,72160.0,-14.73,-15.89,-15.81,0,*5E
1521576064.97,5562,11.0,72154.3,-14.75,-15.89,-15.81,0,*5B
1521576066.25,5563,11.0,72158.3,-14.75,-15.81,-15.89,0,*5A
1521576067.53,5564,11.0,72156.5,-14.75,-15.89,-15.89,0,*55
1521576068.81,5565,11.0,72156.5,-14.75,-15.89,-15.81,0,*5C
1521576070.1,5566,11.0,72154.8,-14.75,-15.89,-15.81,0,*5F
1521576071.38,5567,11.0,72158.3,-14.75,-15.81,-15.81,0,*56
1521576072.64,5568,11.0,72158.0,-14.73,-15.81,-15.81,0,*5F
1521576073.91,5569,11.0,72162.5,-14.75,-15.81,-15.89,0,*50
1521576075.17,5570,11.0,72162.3,-14.73,-15.89,-15.89,0,*56
1521576076.46,5571,11.0,72164.3,-14.75,-15.89,-15.81,0,*59
1521576077.74,5572,11.0,72162.8,-14.75,-15.89,-15.81,0,*5A
1521576079.02,5573,11.0,72162.8,-14.75,-15.81,-15.81,0,*53
1521576080.3,5574,11.0,72160.8,-14.75,-15.89,-15.89,0,*54
1521576081.59,5575,11.0,72156.3,-14.75,-15.89,-15.81,0,*5D
1521576082.86,5576,11.0,72156.5,-14.75,-15.81,-15.89,0,*5E
1521576084.14,5577,11.0,72156.8,-14.75,-15.81,-15.89,0,*5F
1521576085.42,5578,11.0,72160.0,-14.75,-15.89,-15.81,0,*50
1521576086.7,5579,11.0,72160.0,-14.75,-15.89,-15.89,0,*59
1521576087.99,5580,11.0,72160.3,-14.75,-15.89,-15.81,0,*57
1521576089.26,5581,11.0,72160.5,-14.75,-15.81,-15.89,0,*56
1521576090.54,5582,11.0,72158.0,-14.75,-15.89,-15.89,0,*5D
1521576091.83,5583,11.0,72158.5,-14.75,-15.89,-15.81,0,*54
1521576093.11,5584,11.0,72156.8,-14.75,-15.81,-15.89,0,*53
1521576094.39,5585,11.0,72162.0,-14.75,-15.89,-15.81,0,*52
1521576095.67,5586,11.0,72150.3,-14.75,-15.81,-15.81,0,*59
1521576096.95,5587,11.0,72154.8,-14.75,-15.89,-15.81,0,*50
1521576098.24,5588,11.0,72156.8,-14.75,-15.89,-15.81,0,*5F
1521576099.5,5589,11.0,72162.8,-14.73,-15.81,-15.81,0,*50
1521576100.78,5590,11.0,72156.5,-14.75,-15.89,-15.89,0,*5E
1521576102.06,5591,11.0,72152.8,-14.75,-15.89,-15.81,0,*57
1521576103.34,5592,11.0,72162.0,-14.75,-15.89,-15.89,0,*5C
1521576104.62,5593,11.0,72162.5,-14.75,-15.89,-15.89,0,*5D
1521576105.91,5594,11.0,72160.5,-14.75,-15.89,-15.81,0,*52
1521576107.19,5595,11.0,72164.8,-14.75,-15.89,-15.89,0,*5B
1521576108.47,5596,11.0,72166.5,-14.75,-15.89,-15.81,0,*50
1521576109.75,5597,11.0,72164.3,-14.75,-15.89,-15.89,0,*59
1521576111.03,5598,11.0,72166.0,-14.75,-15.89,-15.89,0,*56
1521576112.32,5599,11.0,72164.3,-14.75,-15.89,-15.81,0,*5F
1521576113.59,5600,11.0,72160.3,-14.75,-15.81,-15.89,0,*5C
1521576114.85,5601,11.0,72164.3,-14.75,-15.89,-15.95,0,*58
1521576116.1,5602,11.0,72162.8,-14.75,-15.95,-15.89,0,*5B
1521576117.36,5603,11.0,72160.0,-14.75,-15.95,-15.81,0,*52
1521576118.64,5604,11.0,72158.3,-14.75,-15.89,-15.89,0,*50
1521576119.92,5605,11.0,72162.8,-14.75,-15.89,-15.89,0,*51
1521576121.21,5606,11.0,72168.5,-14.75,-15.89,-15.81,0,*5A
1521576122.49,5607,11.0,72170.0,-14.75,-15.89,-15.81,0,*5B
1521576123.78,5608,11.0,72166.8,-14.75,-15.89,-15.81,0,*54
1521576125.06,5609,11.0,72170.3,-14.75,-15.89,-15.89,0,*5D
1521576126.34,5610,11.0,72168.3,-14.75,-15.89,-15.89,0,*55
1521576127.59,5611,11.0,72166.0,-14.75,-15.95,-15.89,0,*59
1521576128.87,5612,11.0,72170.3,-14.75,-15.89,-15.81,0,*5F
1521576130.13,5613,11.0,72168.5,-14.75,-16.03,-15.89,0,*57
1521576131.38,5614,11.0,72164.5,-14.75,-15.95,-15.81,0,*54
1521576132.64,5615,11.0,72168.0,-14.75,-15.89,-15.95,0,*5D
1521576133.92,5616,11.0,72170.5,-14.75,-15.89,-15.89,0,*53
1521576135.2,5617,11.0,72170.5,-14.75,-15.89,-15.89,0,*52
1521576136.48,5618,11.0,72164.8,-14.75,-15.81,-15.89,0,*55
1521576137.76,5619,11.0,72162.8,-14.75,-15.89,-15.89,0,*5C
1521576139.02,5620,11.0,72156.3,-14.75,-15.95,-15.81,0,*53
1521576140.3,5621,11.0,72156.8,-14.75,-15.89,-15.89,0,*57
1521576141.55,5622,11.0,72154.3,-14.75,-16.03,-15.89,0,*55
1521576142.83,5623,11.0,72166.0,-14.75,-15.89,-15.89,0,*55
1521576144.08,5624,11.0,72166.3,-14.75,-15.95,-15.89,0,*5F
1521576145.34,5625,11.0,72162.5,-14.75,-15.95,-15.89,0,*5E
1521576146.56,5626,11.0,72168.5,-14.79,-15.99,-15.95,0,*50
1521576147.84,5627,11.0,72170.8,-14.75,-15.89,-15.89,0,*51
1521576149.1,5628,11.0,72166.3,-14.75,-15.95,-15.89,0,*53
1521576150.35,5629,11.0,72168.0,-14.75,-15.95,-15.89,0,*52
1521576151.58,5630,11.0,72168.0,-14.79,-15.95,-15.95,0,*5B
1521576152.84,5631,11.0,72168.5,-14.75,-16.03,-15.81,0,*5F
1521576154.09,5632,11.0,72170.8,-14.75,-15.95,-15.89,0,*58
1521576155.32,5633,11.0,72168.0,-14.75,-15.95,-15.95,0,*54
1521576156.55,5634,11.0,72168.3,-14.75,-15.95,-16.03,0,*5F
1521576157.8,5635,11.0,72172.5,-14.75,-15.95,-15.89,0,*5F
1521576159.08,5636,11.0,72172.5,-14.75,-15.89,-15.89,0,*51
1521576160.34,5637,11.0,72168.3,-14.75,-15.95,-15.81,0,*55
1521576161.59,5638,11.0,72170.5,-14.75,-16.03,-15.89,0,*5E
1521576162.85,5639,11.0,72168.8,-14.75,-15.95,-15.89,0,*53
1521576164.13,5640,11.0,72172.5,-14.75,-15.81,-15.81,0,*50
1521576165.41,5641,11.0,72172.5,-14.75,-15.89,-15.81,0,*59
1521576166.67,5642,11.0,72174.5,-14.75,-15.95,-15.89,0,*5F
1521576167.92,5643,11.0,72170.0,-14.75,-15.95,-15.81,0,*56
1521576169.15,5644,11.0,72174.0,-14.79,-15.99,-15.95,0,*54
1521576170.37,5645,11.0,72170.5,-14.79,-15.99,-15.95,0,*55
1521576171.62,5646,11.0,72170.0,-14.75,-16.03,-15.89,0,*57
1521576172.87,5647,11.0,72170.8,-14.79,-15.99,-15.89,0,*5A
1521576174.12,5648,11.0,72170.5,-14.75,-15.95,-15.89,0,*55
1521576175.35,5649,11.0,72172.3,-14.79,-15.95,-15.95,0,*55
1521576176.63,5650,11.0,72170.8,-14.75,-15.89,-15.89,0,*51
1521576177.86,5651,11.0,72168.8,-14.79,-15.95,-15.95,0,*5C
1521576179.09,5652,11.0,72172.5,-14.79,-15.95,-15.95,0,*5F
1521576180.38,5653,11.0,72168.8,-14.75,-16.09,-15.81,0,*51
1521576181.64,5654,11.0,72176.3,-14.75,-15.95,-15.89,0,*58
1521576182.89,5655,11.0,72170.3,-14.75,-15.95,-15.81,0,*51
1521576184.12,5656,11.0,72174.0,-14.79,-15.95,-15.95,0,*5B
1521576185.38,5657,11.0,72172.5,-14.75,-15.95,-15.81,0,*53
1521576186.66,5658,11.0,72170.0,-14.75,-15.89,-15.89,0,*59
1521576187.89,5659,11.0,72172.8,-14.75,-16.03,-15.95,0,*54
1521576189.12,5660,11.0,72174.8,-14.79,-15.95,-15.99,0,*52
1521576190.4,5661,11.0,72174.3,-14.75,-15.89,-15.89,0,*53
1521576191.68,5662,11.0,72174.3,-14.79,-16.09,-15.89,0,*57
1521576192.91,5663,11.0,72170.3,-14.79,-15.95,-15.99,0,*51
1521576194.16,5664,11.0,72170.3,-14.75,-15.95,-15.89,0,*5B
1521576195.42,5665,11.0,72174.5,-14.75,-15.95,-15.89,0,*5A
1521576196.64,5666,11.0,72172.5,-14.75,-15.95,-16.03,0,*58
1521576197.87,5667,11.0,72174.5,-14.75,-15.95,-15.95,0,*55
1521576199.13,5668,10.94,72170.3,-14.75,-15.95,-15.89,0,*57
1521576200.41,5669,11.0,72174.3,-14.75,-15.89,-15.89,0,*5B
1521576201.66,5670,11.0,72174.8,-14.79,-15.99,-15.85,0,*52
1521576202.89,5671,11.0,72168.0,-14.75,-15.95,-15.95,0,*52
1521576204.17,5672,11.0,72172.3,-14.75,-15.89,-15.81,0,*59
1521576205.46,5673,11.0,72176.3,-14.75,-16.09,-15.89,0,*5B
1521576206.71,5674,11.0,72176.0,-14.75,-15.95,-15.89,0,*5A
1521576207.97,5675,11.0,72178.3,-14.79,-16.09,-15.99,0,*50
1521576209.22,5676,11.0,72178.5,-14.75,-15.89,-15.95,0,*58
1521576210.45,5677,11.0,72180.0,-14.79,-15.99,-15.95,0,*54
1521576211.7,5678,11.0,72180.3,-14.75,-15.95,-15.89,0,*56
1521576212.93,5679,11.0,72180.8,-14.79,-15.99,-15.95,0,*5A
1521576214.15,5680,11.0,72178.0,-14.79,-15.99,-15.95,0,*5C
1521576215.43,5681,11.0,72174.8,-14.75,-15.89,-15.89,0,*5D
1521576216.69,5682,11.0,72174.0,-14.79,-16.09,-15.99,0,*58
1521576217.91,5683,11.0,72174.3,-14.79,-15.99,-15.99,0,*53
1521576219.16,5684,11.0,72178.3,-14.79,-16.09,-15.99,0,*5E
1521576220.39,5685,11.0,72178.8,-14.79,-15.99,-15.95,0,*59
1521576221.64,5686,11.0,72176.8,-14.79,-15.95,-15.89,0,*5B
1521576222.86,5687,11.0,72176.8,-14.79,-15.99,-15.99,0,*57
1521576224.08,5688,11.0,72176.0,-14.79,-15.99,-15.99,0,*58
1521576225.3,5689,11.0,72172.5,-14.79,-15.99,-15.95,0,*55
1521576226.58,5690,11.0,72168.3,-14.75,-15.89,-15.89,0,*5D
1521576227.81,5691,11.0,72166.3,-14.79,-15.99,-15.95,0,*5C
1521576229.03,5692,11.0,72170.8,-14.79,-15.99,-15.95,0,*5F
1521576230.28,5693,11.0,72164.5,-14.75,-15.95,-15.89,0,*53
1521576231.51,5694,11.0,72168.8,-14.79,-15.99,-15.95,0,*59
1521576232.77,5695,11.0,72166.3,-14.79,-16.09,-15.95,0,*52
1521576234.02,5696,11.0,72170.8,-14.79,-15.99,-16.09,0,*5D
1521576235.24,5697,11.0,72168.8,-14.79,-15.99,-15.95,0,*5A
1521576236.5,5698,11.0,72170.3,-14.79,-16.09,-15.99,0,*53
1521576237.72,5699,11.0,72166.0,-14.79,-15.99,-15.95,0,*54
1521576238.92,5700,11.0,72166.5,-14.81,-15.99,-16.03,0,*5E
1521576240.14,5701,11.0,72168.3,-14.79,-15.99,-15.95,0,*54
1521576241.37,5702,11.0,72170.0,-14.79,-15.99,-15.95,0,*57
1521576242.6,5703,11.0,72172.3,-14.79,-15.95,-15.95,0,*5A
1521576243.82,5704,11.0,72168.0,-14.79,-15.99,-15.99,0,*5D
1521576245.04,5705,11.0,72172.3,-14.79,-15.99,-15.95,0,*50
1521576246.29,5706,11.0,72172.8,-14.79,-15.99,-15.85,0,*52
1521576247.51,5707,11.0,72168.8,-14.79,-15.99,-15.95,0,*52
1521576248.77,5708,11.0,72174.0,-14.79,-16.09,-15.95,0,*57
1521576250.0,5709,11.0,72172.0,-14.79,-15.99,-15.95,0,*5C
1521576251.22,5710,11.0,72174.5,-14.79,-15.95,-15.99,0,*54
1521576252.44,5711,11.0,72172.0,-14.79,-15.99,-15.99,0,*59
1521576253.67,5712,11.0,72174.3,-14.79,-15.99,-15.95,0,*56
1521576254.93,5713,11.0,72172.0,-14.79,-16.09,-15.95,0,*5D
1521576256.15,5714,11.0,72174.3,-14.79,-15.99,-15.99,0,*5C
1521576257.35,5715,11.0,72172.0,-14.81,-16.03,-16.03,0,*5A
1521576258.61,5716,11.0,72170.0,-14.79,-16.09,-15.99,0,*54
1521576259.86,5717,11.0,72168.8,-14.79,-16.09,-15.99,0,*55
1521576261.12,5718,11.0,72166.8,-14.79,-16.09,-15.99,0,*5A
1521576262.36,5719,11.0,72168.0,-14.81,-16.13,-16.03,0,*57
1521576263.59,5720,11.0,72168.3,-14.81,-16.13,-16.03,0,*5D
1521576264.82,5721,11.0,72170.8,-14.81,-16.13,-16.03,0,*5C
1521576266.03,5722,11.0,72170.0,-14.81,-16.03,-16.03,0,*5E
1521576267.25,5723,11.0,72168.5,-14.81,-15.99,-16.13,0,*5E
1521576268.48,5724,11.0,72168.5,-14.81,-16.13,-15.99,0,*59
1521576269.69,5725,11.0,72170.0,-14.81,-16.03,-15.99,0,*59
1521576270.89,5726,11.0,72170.0,-14.81,-16.03,-16.03,0,*5A
1521576272.09,5727,11.0,72170.5,-14.81,-16.03,-16.03,0,*5B
1521576273.33,5728,11.0,72174.3,-14.81,-16.13,-15.99,0,*55
1521576274.53,5729,11.0,72170.0,-14.81,-16.03,-16.03,0,*55
1521576275.75,5730,11.0,72168.8,-14.79,-15.99,-15.95,0,*56
1521576277.0,5731,11.0,72168.3,-14.79,-15.99,-16.09,0,*51
1521576278.23,5732,11.0,72170.0,-14.79,-15.95,-15.95,0,*58
1521576279.47,5733,11.0,72172.5,-14.81,-16.13,-15.99,0,*5F
1521576280.69,5734,11.0,72170.3,-14.83,-16.03,-15.99,0,*5B
1521576281.89,5735,11.0,72166.8,-14.81,-16.03,-16.03,0,*58
1521576283.11,5736,11.0,72164.5,-14.79,-15.99,-15.99,0,*5C
1521576284.34,5737,11.0,72168.8,-14.79,-15.99,-15.95,0,*51
1521576285.57,5738,11.0,72168.3,-14.81,-15.89,-16.03,0,*54
1521576286.8,5739,11.0,72170.8,-14.83,-16.03,-16.03,0,*56
1521576287.99,5740,11.0,72168.0,-14.81,-15.99,-15.99,0,*5A
1521576289.19,5741,10.94,72164.5,-14.81,-15.99,-16.03,0,*5B
1521576290.39,5742,11.0,72174.8,-14.81,-15.99,-15.99,0,*58
1521576291.61,5743,11.0,72172.3,-14.79,-15.99,-15.95,0,*52
1521576292.87,5744,11.0,72172.5,-14.79,-16.09,-15.95,0,*5F
1521576294.09,5745,11.0,72170.8,-14.79,-15.99,-15.99,0,*58
1521576295.29,5746,11.0,72172.8,-14.81,-15.99,-15.99,0,*5C
1521576296.49,5747,11.0,72174.8,-14.81,-15.99,-16.03,0,*5D
1521576297.68,5748,11.0,72174.8,-14.81,-15.99,-15.99,0,*52
1521576298.88,5749,11.0,72170.0,-14.81,-16.03,-15.99,0,*53
1521576300.12,5750,11.0,72172.8,-14.81,-15.89,-15.99,0,*5A
1521576301.37,5751,11.0,72168.0,-14.81,-16.13,-15.89,0,*5A
1521576302.58,5752,11.0,72170.5,-14.81,-16.03,-15.99,0,*59
1521576303.81,5753,11.0,72174.3,-14.81,-16.13,-15.99,0,*59
1521576305.04,5754,11.0,72168.5,-14.83,-16.03,-16.03,0,*5D
1521576306.27,5755,11.0,72166.8,-14.81,-16.03,-15.89,0,*5F
1521576307.49,5756,11.0,72170.5,-14.83,-16.03,-15.99,0,*5F
1521576308.75,5757,11.0,72166.5,-14.83,-15.89,-15.99,0,*5F
1521576309.97,5758,11.0,72166.0,-14.83,-16.03,-15.99,0,*51
1521576311.2,5759,11.0,72168.3,-14.81,-16.03,-16.13,0,*53
1521576312.43,5760,11.0,72166.3,-14.81,-16.03,-15.89,0,*59
1521576313.64,5761,11.0,72164.0,-14.81,-16.03,-16.03,0,*59
1521576314.86,5762,11.0,72160.0,-14.83,-15.99,-15.99,0,*58
1521576316.05,5763,11.0,72168.8,-14.81,-15.99,-15.99,0,*5B
1521576317.28,5764,11.0,72174.0,-14.83,-16.03,-15.99,0,*5E
1521576318.48,5765,11.0,72168.8,-14.81,-16.03,-15.99,0,*5D
1521576319.71,5766,11.0,72172.0,-14.81,-15.89,-16.03,0,*5F
1521576320.91,5767,11.0,72174.0,-14.81,-16.03,-15.99,0,*5F
1521576322.11,5768,11.0,72170.8,-14.81,-15.99,-15.99,0,*50
1521576323.34,5769,11.0,72166.5,-14.81,-16.03,-15.89,0,*50
1521576324.54,5770,11.0,72164.0,-14.81,-15.99,-15.99,0,*59
1521576325.73,5771,10.94,72164.3,-14.81,-15.99,-15.99,0,*58
1521576326.94,5772,11.0,72166.5,-14.81,-16.03,-15.99,0,*5B
1521576328.16,5773,11.0,72168.8,-14.83,-16.03,-15.99,0,*58
1521576329.37,5774,11.0,72166.3,-14.81,-16.03,-15.99,0,*5D
1521576330.56,5775,11.0,72162.0,-14.81,-15.99,-15.99,0,*5C
1521576331.76,5776,11.0,72164.3,-14.81,-15.99,-15.99,0,*5F
1521576332.96,5777,11.0,72164.8,-14.81,-16.03,-15.99,0,*5E
1521576334.25,5778,10.94,72160.8,-14.83,-16.13,-15.85,0,*5F
1521576335.45,5779,11.0,72162.8,-14.81,-16.03,-15.99,0,*50
1521576336.68,5780,11.0,72160.5,-14.83,-16.03,-15.99,0,*54
1521576337.9,5781,11.0,72162.0,-14.81,-15.99,-15.89,0,*56
1521576339.15,5782,11.0,72162.3,-14.83,-15.99,-15.89,0,*57
1521576340.4,5783,11.0,72162.3,-14.83,-16.03,-15.89,0,*56
1521576341.62,5784,11.0,72154.5,-14.83,-15.99,-15.99,0,*50
1521576342.84,5785,11.0,72166.8,-14.83,-15.99,-16.03,0,*51
1521576344.1,5786,11.0,72168.3,-14.83,-16.13,-15.99,0,*53
1521576345.3,5787,11.0,72174.0,-14.81,-16.03,-15.99,0,*51
1521576346.5,5788,11.0,72172.5,-14.81,-15.99,-15.99,0,*5E
1521576347.72,5789,11.0,72168.0,-14.83,-16.03,-15.99,0,*5D
1521576348.98,5790,11.0,72166.3,-14.83,-16.13,-16.03,0,*54
1521576350.18,5791,11.0,72164.3,-14.81,-16.03,-15.99,0,*56
1521576351.41,5792,10.94,72162.3,-14.83,-16.03,-15.99,0,*57
1521576352.61,5793,11.0,72166.5,-14.81,-16.03,-16.03,0,*54
1521576353.84,5794,11.0,72168.0,-14.83,-16.03,-16.03,0,*51
1521576355.07,5795,11.0,72166.3,-14.83,-16.03,-16.03,0,*50
1521576356.32,5796,11.0,72166.5,-14.83,-16.13,-15.99,0,*52
1521576357.55,5797,11.0,72164.5,-14.83,-16.03,-15.99,0,*52
1521576358.77,5798,11.0,72156.0,-14.83,-16.03,-15.99,0,*5D
1521576360.0,5799,11.0,72148.3,-14.83,-16.03,-16.03,0,*5C
1521576361.23,5800,11.0,72144.5,-14.81,-16.03,-15.89,0,*50
1521576362.51,5801,11.0,72146.3,-14.83,-16.13,-15.89,0,*52
1521576363.72,5802,11.0,72154.5,-14.81,-16.03,-15.99,0,*53
1521576364.97,5803,11.0,72162.5,-14.83,-16.03,-15.89,0,*51
1521576366.2,5804,11.0,72160.5,-14.83,-16.03,-16.03,0,*57
1521576367.42,5805,10.94,72160.3,-14.83,-15.99,-16.03,0,*56
1521576368.64,5806,11.0,72166.3,-14.83,-16.03,-15.99,0,*55
1521576369.87,5807,11.0,72160.3,-14.83,-16.03,-15.99,0,*54
1521576371.07,5808,11.0,72164.5,-14.81,-15.99,-16.03,0,*59
1521576372.29,5809,11.0,72164.8,-14.83,-16.03,-15.99,0,*5A
1521576373.56,5810,11.0,72164.8,-14.85,-16.09,-16.09,0,*54
1521576374.79,5811,11.0,72162.3,-14.83,-16.03,-16.03,0,*53
1521576376.01,5812,11.0,72160.5,-14.83,-15.99,-15.99,0,*50
1521576377.26,5813,11.0,72162.3,-14.83,-16.03,-15.89,0,*50
1521576378.48,5814,10.94,72166.5,-14.83,-15.99,-15.99,0,*56
1521576379.7,5815,11.0,72164.8,-14.83,-15.99,-15.99,0,*57
1521576380.95,5816,10.94,72162.3,-14.83,-15.89,-15.99,0,*55
1521576382.17,5817,11.0,72164.0,-14.83,-15.99,-15.99,0,*55
1521576383.39,5818,11.0,72170.0,-14.83,-15.99,-15.99,0,*5A
1521576384.64,5819,11.0,72168.8,-14.83,-15.99,-15.89,0,*5A
1521576385.86,5820,11.0,72172.3,-14.83,-15.99,-15.99,0,*51
1521576387.11,5821,11.0,72168.8,-14.83,-15.99,-15.89,0,*51
1521576388.33,5822,11.0,72168.5,-14.83,-16.03,-15.99,0,*53
1521576389.55,5823,11.0,72170.0,-14.83,-15.99,-15.99,0,*52
1521576390.81,5824,11.0,72166.3,-14.83,-16.03,-15.89,0,*54
1521576392.06,5825,11.0,72166.5,-14.83,-15.89,-15.99,0,*55
1521576393.28,5826,11.0,72160.0,-14.83,-15.99,-15.99,0,*57
1521576394.5,5827,11.0,72146.5,-14.83,-15.99,-15.99,0,*56
1521576395.74,5828,11.0,72142.5,-14.85,-16.09,-16.03,0,*55
1521576396.97,5829,11.0,72146.5,-14.85,-16.03,-16.09,0,*54
1521576398.25,5830,11.0,72154.8,-14.83,-15.89,-15.89,0,*50
1521576399.5,5831,11.0,72158.0,-14.83,-15.99,-15.89,0,*50
1521576400.72,5832,10.94,72158.3,-14.83,-15.99,-15.99,0,*52
1521576401.96,5833,10.94,72160.3,-14.83,-15.99,-15.89,0,*52
1521576403.22,5834,11.0,72166.5,-14.83,-15.89,-15.99,0,*55
1521576404.47,5835,11.0,72168.5,-14.83,-15.99,-15.89,0,*54
1521576405.69,5836,10.94,72168.3,-14.83,-15.99,-15.99,0,*56
1521576406.93,5837,11.0,72172.0,-14.83,-15.99,-15.89,0,*56
1521576408.16,5838,11.0,72174.3,-14.83,-16.03,-15.99,0,*58
1521576409.39,5839,11.0,72168.3,-14.83,-16.03,-15.99,0,*59
1521576410.62,5840,11.0,72172.5,-14.85,-16.09,-15.95,0,*57
1521576411.83,5841,11.0,72172.0,-14.85,-16.03,-15.95,0,*5C
1521576413.03,5842,11.0,72170.3,-14.85,-15.95,-16.03,0,*5F
1521576414.27,5843,10.94,72166.3,-14.85,-16.03,-16.09,0,*58
1521576415.47,5844,11.0,72174.8,-14.85,-16.03,-16.03,0,*55
1521576416.71,5845,11.0,72172.0,-14.85,-16.09,-16.03,0,*5E
1521576417.92,5846,11.0,72174.3,-14.85,-16.03,-15.95,0,*5B
1521576419.12,5847,11.0,72174.0,-14.85,-16.03,-16.03,0,*56
1521576420.32,5848,11.0,72174.5,-14.85,-15.95,-16.03,0,*55
1521576421.53,5849,10.94,72168.0,-14.85,-16.03,-16.03,0,*58
1521576422.76,5850,11.0,72170.3,-14.85,-16.09,-15.95,0,*56
1521576424.03,5851,11.0,72170.0,-14.85,-16.09,-15.89,0,*5A
1521576425.29,5852,11.0,72168.0,-14.85,-16.09,-16.09,0,*52
1521576426.49,5853,10.94,72168.0,-14.85,-16.03,-16.03,0,*53
1521576427.74,5854,11.0,72174.0,-14.83,-15.99,-15.89,0,*53
1521576428.95,5855,11.0,72174.8,-14.85,-15.95,-15.95,0,*55
1521576430.16,5856,11.0,72178.8,-14.85,-16.03,-15.95,0,*5A
1521576431.36,5857,11.0,72174.5,-14.85,-15.95,-16.03,0,*5B
1521576432.57,5858,11.0,72172.3,-14.85,-15.95,-15.95,0,*58
1521576433.82,5859,10.94,72172.5,-14.83,-15.99,-15.89,0,*5E
1521576435.05,5860,10.94,72168.8,-14.85,-16.09,-15.95,0,*55
1521576436.26,5861,11.0,72168.5,-14.85,-16.03,-16.03,0,*52
1521576437.46,5862,11.0,72170.5,-14.85,-16.03,-16.03,0,*51
1521576438.67,5863,11.0,72170.5,-14.85,-15.95,-16.03,0,*5C
1521576439.9,5864,11.0,72170.3,-14.85,-16.09,-16.03,0,*5D
1521576441.14,5865,11.0,72170.5,-14.85,-16.09,-16.03,0,*5C
1521576442.34,5866,11.0,72168.8,-14.85,-16.03,-16.03,0,*55
1521576443.54,5867,10.94,72164.3,-14.85,-16.03,-16.03,0,*54
1521576444.75,5868,11.0,72164.8,-14.85,-16.03,-16.03,0,*5B
1521576445.98,5869,11.0,72164.0,-14.85,-16.09,-16.03,0,*50
1521576447.19,5870,11.0,72162.0,-14.85,-16.03,-15.95,0,*5E
1521576448.39,5871,10.94,72162.5,-14.85,-16.03,-16.03,0,*53
1521576449.6,5872,11.0,72160.0,-14.89,-16.03,-16.03,0,*5C
1521576450.81,5873,11.0,72166.5,-14.85,-16.03,-15.95,0,*5D
1521576452.02,5874,10.94,72162.0,-14.89,-16.03,-16.03,0,*5A
1521576453.23,5875,11.0,72166.0,-14.89,-16.03,-15.95,0,*57
1521576454.44,5876,11.0,72170.5,-14.85,-16.03,-16.03,0,*54
1521576455.67,5877,10.94,72170.8,-14.85,-16.03,-16.17,0,*50
1521576456.9,5878,11.0,72168.5,-14.85,-16.09,-16.03,0,*50
1521576458.11,5879,11.0,72172.0,-14.85,-16.03,-15.95,0,*57
1521576459.35,5880,10.94,72172.8,-14.85,-16.09,-16.03,0,*57
1521576460.58,5881,11.0,72174.8,-14.85,-16.09,-15.95,0,*5A
1521576461.79,5882,10.94,72170.8,-14.89,-16.03,-16.03,0,*53
1521576463.03,5883,11.0,72172.0,-14.85,-16.09,-16.03,0,*54
1521576464.26,5884,11.0,72176.0,-14.85,-16.09,-16.03,0,*53
1521576465.5,5885,11.0,72174.5,-14.89,-16.03,-16.09,0,*5E
1521576466.74,5886,11.0,72168.8,-14.85,-15.95,-16.09,0,*5D
1521576467.95,5887,10.94,72166.3,-14.85,-16.03,-15.95,0,*56
1521576469.19,5888,10.94,72160.5,-14.89,-16.03,-16.09,0,*53
1521576470.42,5889,11.0,72162.8,-14.85,-16.09,-16.03,0,*5E
1521576471.66,5890,11.0,72164.5,-14.85,-16.09,-15.95,0,*5A
1521576472.93,5891,10.94,72160.3,-14.89,-16.09,-16.09,0,*51
1521576474.16,5892,10.94,72170.3,-14.85,-16.03,-16.09,0,*54
1521576475.37,5893,11.0,72172.3,-14.89,-16.03,-16.03,0,*53
1521576476.64,5894,10.94,72168.8,-14.85,-16.09,-16.09,0,*58
1521576477.87,5895,11.0,72168.5,-14.85,-16.03,-16.09,0,*53
1521576479.12,5896,11.0,72168.5,-14.89,-16.09,-15.95,0,*50
1521576480.36,5897,10.94,72166.0,-14.89,-16.09,-16.03,0,*5D
1521576481.62,5898,11.0,72168.5,-14.85,-16.09,-16.09,0,*54
1521576482.86,5899,11.0,72166.0,-14.89,-16.09,-16.03,0,*53
1521576484.07,5900,10.94,72164.3,-14.85,-16.03,-15.95,0,*58
1521576485.3,5901,11.0,72164.3,-14.85,-16.17,-15.95,0,*5C
1521576486.55,5902,10.94,72168.0,-14.89,-16.03,-16.09,0,*50
1521576487.79,5903,10.94,72166.8,-14.89,-16.09,-16.03,0,*51
1521576489.03,5904,10.94,72168.3,-14.89,-16.09,-16.03,0,*56
1521576490.29,5905,11.0,72172.3,-14.85,-16.09,-16.09,0,*51
1521576491.53,5906,11.0,72174.0,-14.85,-16.09,-16.03,0,*58
1521576492.73,5907,11.0,72170.8,-14.85,-16.03,-16.03,0,*53
1521576493.97,5908,11.0,72168.8,-14.89,-16.17,-16.03,0,*55
1521576495.21,5909,10.94,72168.0,-14.89,-16.09,-16.03,0,*5B
1521576496.45,5910,10.94,72168.3,-14.89,-16.17,-15.95,0,*50
1521576497.68,5911,11.0,72170.0,-14.85,-16.09,-16.03,0,*5E
1521576498.92,5912,11.0,72170.5,-14.89,-16.17,-16.03,0,*5E
1521576500.16,5913,10.94,72164.8,-14.89,-16.09,-16.03,0,*50
1521576501.4,5914,11.0,72168.8,-14.89,-16.09,-16.03,0,*57
1521576502.64,5915,10.94,72162.5,-14.89,-16.09,-16.03,0,*56
1521576503.89,5916,11.0,72160.5,-14.89,-16.09,-15.95,0,*59